CAPE
595 755 1041 1185 1133 922 800 788 754 720 728 826 963 1045 1156 1275 1376 1475 1501 1471 1287 1220 1231 1242 1314 1294 1271 1215 1032 1034 1096 1008 936 979 944 842 803 926 1198 1209 1186 1097 1008 976 857 850 790 684 628 682 813 956 1024 977 1101 1191 1209 1202 1216 1266 1224 1128 1035 968 828 802 807 817 920 857 1095 1276 1296 1745 1979 1813 1674 1386 1293 1772 1829 1791 1951 2252 2299
439 488 731 863 1252 1286 1083 860 748 659 654 643 737 899 938 1036 1055 1106 1383 1573 1577 1455 1388 1399 1304 1322 1320 1276 1190 958 902 968 1082 1114 937 950 813 704 769 1147 1277 1227 1072 836 874 828 800 730 729 729 701 935 975 855 1022 1091 1110 1119 1128 1241 1256 1177 1064 985 904 753 630 609 693 936 977 1084 1215 1451 1734 1652 1764 1831 1523 1618 1621 1816 1876 2244 2602
278 245 318 503 783 1099 1344 1179 897 748 722 696 760 799 773 933 1073 984 998 1078 1400 1526 1480 1404 1309 1316 1280 1203 1119 1115 1138 1088 1003 1007 1054 969 872 837 826 778 1023 1222 1258 1103 1059 908 873 832 802 786 684 858 759 914 1118 1040 1068 1029 1068 1146 1240 1225 1096 961 814 682 607 597 622 391 690 1278 1345 1576 1380 1513 1889 1920 1847 1687 1710 1720 1882 2005 2297
139 12 10 49 268 574 904 1330 1212 904 865 838 784 778 752 779 926 1030 1013 939 905 1068 1350 1468 1426 1370 1371 1265 1229 1171 1113 1196 1251 1109 1133 1172 1164 1113 993 978 1000 1036 1125 1154 1112 1006 988 989 1053 838 803 961 785 797 1363 1042 1024 995 992 1068 1198 1244 1114 905 790 688 552 600 552 548 645 1060 1306 1232 1380 1470 1174 1474 1686 1987 1729 1725 1933 1966 2048
22 0 0 0 11 97 316 820 1273 1048 888 830 765 720 668 784 866 928 988 1029 934 858 787 940 1198 1303 1263 1202 1162 1183 1326 1388 1442 1383 1201 1097 1094 1204 1220 1210 1169 1137 1196 1196 1104 987 1159 1212 1158 1082 847 785 762 536 685 1017 1014 983 924 968 1102 1158 1117 945 759 648 596 562 610 621 719 1050 1366 1519 1560 1405 1476 1558 1713 2064 1935 2178 2207 1996 2074
60 0 0 0 0 10 107 451 1052 1109 904 716 610 565 515 521 695 800 932 961 914 802 819 750 700 803 1049 1163 1130 1173 1259 1354 1417 1401 1326 1215 1148 1088 1035 1216 1285 1307 1209 1183 1152 1143 1175 1222 1214 1119 880 822 731 699 577 697 933 1021 965 879 910 976 1001 915 704 641 614 602 578 620 587 744 1297 1622 1621 1523 1368 1410 1480 1621 1619 1799 1988 1901 1925
86 10 0 0 0 0 5 212 756 890 643 522 368 307 265 298 388 539 866 953 874 826 772 732 770 747 728 816 1069 1180 1160 1143 1128 1195 1208 1203 1145 1179 1203 1230 1278 1351 1475 1408 1238 1236 1178 1197 1210 1137 942 930 952 924 744 624 757 926 1016 913 824 844 881 848 700 640 606 541 537 520 653 915 1096 1336 1635 1511 1544 1491 1539 1526 1502 1840 1945 1998 2356
28 18 0 0 0 0 0 28 439 426 390 132 52 72 95 112 167 353 603 684 744 857 819 748 722 718 728 691 702 777 990 1098 1220 1104 1155 1097 1031 1055 1072 1218 1349 1472 1435 1424 1304 1232 1149 1007 1081 1242 1049 1031 998 998 949 849 697 657 898 974 900 828 779 712 638 591 553 454 528 607 712 830 1207 1072 1657 1424 1566 1499 1258 1277 1406 1542 1666 2008 1909
5 0 0 0 0 0 0 24 101 51 65 6 1 0 1 8 72 185 299 391 516 581 689 680 735 718 684 748 770 766 782 929 1184 1296 1139 1134 1018 956 995 1014 1056 1184 1246 1500 1501 1356 1265 1140 1048 1203 1275 1258 1248 1186 1002 952 783 705 700 812 923 893 838 732 569 458 396 369 489 592 718 975 1056 1290 1328 1492 1603 1479 1854 1305 1402 1556 1777 1723 1713
0 0 0 0 1 17 18 46 20 4 0 0 0 0 0 4 48 84 138 201 270 356 477 628 686 802 828 835 840 852 916 945 1048 1182 1307 1183 1244 1203 1144 1134 1182 1288 1430 1499 1572 1620 1505 1316 1287 1338 1432 1233 1332 1379 1394 1284 1261 846 760 564 843 832 854 868 811 697 672 667 636 690 777 885 958 1117 1189 1335 1506 1640 1401 1556 1431 1574 1490 1570 1768
0 0 0 0 0 10 37 50 37 16 0 0 0 0 2 9 8 17 48 106 129 247 438 448 569 769 849 955 916 922 858 822 968 963 1004 991 1298 1164 1234 1262 1270 1347 1442 1553 1576 1660 1610 1519 1391 1457 1314 1372 1631 1518 1370 1476 1424 1444 1284 1018 797 644 681 816 888 912 899 875 888 818 756 786 806 1008 1082 1070 1356 1321 1646 1793 1632 1753 1563 1472 1497
0 0 0 0 0 12 36 47 44 33 14 12 7 10 17 8 5 4 7 28 143 286 272 268 368 553 719 852 1016 1037 955 1033 850 787 701 838 1002 1205 1134 1219 1236 1378 1401 1458 1512 1572 1632 1680 1666 1565 1569 1609 1491 1416 1557 1394 1347 1168 1193 1086 1039 835 709 706 772 842 890 936 926 912 870 824 779 970 1005 1126 1420 1580 1710 1642 1748 1713 1728 1604 1681
0 0 0 0 0 0 8 15 22 21 19 18 26 37 21 31 32 17 13 75 146 143 172 208 254 392 602 696 843 941 918 940 834 824 797 755 883 1073 1146 1134 1237 1195 1282 1532 1574 1607 1685 1654 1672 1814 1710 1821 1865 1781 1459 1265 1231 1134 1033 1038 1127 948 760 603 658 962 784 772 783 874 868 855 815 936 942 1272 1581 1572 1798 1697 1733 1732 1797 1757 1620
0 0 0 0 2 6 1 6 10 7 6 13 22 29 35 38 36 36 85 76 57 95 154 191 217 297 519 747 824 808 813 966 889 935 938 909 887 937 999 1012 1075 1029 987 1175 1309 1503 1573 1650 1565 1604 1663 1696 1697 1560 1252 1217 1226 1213 1213 1119 1101 1143 1126 1203 1317 1067 1021 880 801 767 795 858 822 912 1319 1264 1598 1475 1798 1673 1832 1745 1713 1661 1725
0 0 0 6 7 6 8 7 12 34 20 10 17 28 33 28 32 68 89 115 114 93 124 158 195 412 332 442 574 716 758 818 727 766 838 866 876 911 942 902 817 926 971 980 993 1296 1396 1579 1536 1524 1623 1492 1451 1299 1222 1166 1123 1165 1205 1201 1187 1222 1329 1424 1545 1599 1701 1477 1234 1024 843 865 916 1005 1361 1790 1527 1596 1869 1972 2023 2014 2068 1988 1721
2 1 56 26 13 15 9 9 10 13 22 18 14 16 16 24 38 41 209 140 123 115 119 126 166 169 194 289 438 556 694 490 554 690 826 928 956 934 873 830 760 730 879 1034 1122 1071 1064 1259 1354 1436 1439 1451 1611 1428 1322 1474 1186 1180 1240 1189 1409 1585 1562 1605 1510 1842 1640 1728 1719 1630 1213 903 796 1073 1171 1467 1718 1873 1924 2036 1818 1827 1683 1846 1769
10 20 97 32 110 68 27 25 34 60 20 8 6 6 10 18 34 119 140 158 142 113 86 67 114 155 202 336 422 490 602 673 639 788 922 993 915 837 764 742 743 716 691 663 811 956 1042 1046 1064 1282 1246 1265 1329 1205 1201 1172 1202 1096 1145 1179 1195 1455 1476 1587 1589 1773 1880 1890 1912 2055 1913 1665 1340 994 709 676 1159 1490 1744 1871 1911 1694 1709 1748 1680
12 51 36 57 52 42 51 58 44 30 4 2 3 3 8 20 35 138 149 119 102 71 59 87 108 175 230 227 258 524 730 882 800 788 806 832 758 699 661 694 746 759 746 759 825 858 884 1112 1186 1314 1282 1261 1140 1046 1021 875 971 1052 1092 1127 1094 1205 1386 1456 1382 1340 1295 1425 1629 1804 1890 1882 1759 1533 1261 984 812 939 1707 1592 1649 1819 1843 1772 1778
16 21 32 38 44 48 50 59 38 9 4 3 6 3 7 29 81 66 49 43 36 41 87 78 63 63 79 117 198 330 513 556 516 499 586 645 651 684 684 677 779 843 832 850 879 858 824 1010 1018 1068 1249 1112 1112 1119 1148 1036 1019 1040 1024 1096 1068 1072 1124 1254 1375 1370 1297 1203 1204 1127 1236 1438 1498 1352 1270 1298 1250 1116 1201 1467 1640 1694 1636 1777 1840
9 14 15 16 26 65 52 54 30 19 2 3 6 9 47 43 11 16 17 15 13 10 10 19 7 14 22 32 50 114 284 492 704 497 550 659 772 790 692 582 662 684 827 975 976 960 923 927 913 850 902 936 944 980 1075 1114 1171 1222 1188 1143 1117 1088 1125 1349 1450 1429 1411 1362 1216 1258 1093 1041 979 914 924 990 1170 1255 1330 1255 1425 1221 1338 1116 1548
6 1 1 10 35 51 48 24 22 10 5 0 8 22 20 12 11 11 7 8 4 4 4 4 5 1 0 0 10 70 246 583 827 553 595 704 810 739 636 536 538 550 711 907 972 1017 1101 1126 1019 1049 1018 918 890 871 950 969 958 983 1040 1144 1191 1296 1327 1314 1609 1409 1452 1068 980 1011 1007 965 1039 939 836 852 966 1030 1142 1092 996 1026 1138 1080 1082
0 0 6 46 91 67 42 49 58 12 5 3 0 4 15 22 15 11 7 7 10 12 11 8 6 2 1 0 4 63 135 324 602 575 506 495 593 515 29 333 415 442 532 749 948 1042 1205 1209 1187 1150 1116 1173 1162 1037 946 998 1027 1059 1049 994 969 958 1076 1131 1040 966 1020 1061 1057 1069 1055 1025 901 923 947 936 974 1099 1190 1149 1010 905 1198 1448 1242
0 6 68 115 70 66 66 57 37 6 2 8 13 14 10 5 2 9 13 17 16 14 10 7 5 2 0 0 0 22 71 184 197 350 328 31 0 0 0 0 0 1 90 462 636 850 1049 1201 1290 1365 1125 1106 1171 1213 1205 1171 1089 1065 1028 990 944 927 835 824 803 953 1015 1049 998 924 924 932 893 847 1041 1156 1140 1162 1384 1304 1028 1080 1499 1552 1383
0 3 49 43 29 16 19 20 10 2 10 49 41 21 8 6 9 17 31 36 38 27 16 17 14 8 2 0 3 23 56 53 90 117 62 10 0 0 0 0 0 1 434 717 796 794 884 971 1062 943 970 1022 1068 1124 1198 1246 1201 1065 1052 1065 1135 1117 1073 1001 765 784 846 888 984 888 794 746 714 700 749 1067 1191 1069 1140 1060 942 1145 1277 1161 892
0 4 11 20 19 3 0 2 9 20 72 80 36 24 18 17 16 17 34 17 35 35 30 33 29 20 14 11 11 11 25 43 39 70 35 47 2 0 0 116 33 0 489 661 714 706 854 965 810 748 622 542 703 857 935 1026 1128 1184 1101 1143 1199 1189 1078 1040 910 975 964 949 958 924 870 826 758 745 874 796 758 863 953 972 994 962 990 994 915
8 14 23 30 15 3 1 1 29 86 92 101 80 60 38 37 31 17 18 10 7 28 40 46 35 40 28 27 17 11 14 36 24 13 21 54 154 71 152 181 113 144 265 379 524 562 502 637 731 653 151 0 0 619 863 979 1077 1164 1190 1165 1126 1135 1144 1132 912 902 1016 1084 1020 990 871 789 739 933 732 786 911 1023 994 868 857 1013 1000 848 712
14 21 29 27 13 8 4 31 112 79 51 87 91 70 46 40 17 46 8 18 16 7 28 21 21 21 28 24 22 28 26 28 44 12 3 45 113 162 32 18 5 3 52 230 294 307 292 282 648 690 570 139 14 73 426 674 891 973 970 1095 1048 1000 1081 1138 1269 1235 1202 1112 947 805 730 700 786 668 669 754 897 906 818 787 792 789 625 596 509
12 17 15 8 5 11 21 52 35 18 32 49 47 40 28 32 33 16 20 9 16 14 6 6 8 8 14 14 12 12 12 15 36 47 12 11 4 4 3 4 4 2 1 33 32 113 388 444 593 584 486 308 203 250 244 346 540 839 1018 1047 1052 1033 929 995 1158 1218 1251 1183 1098 1014 954 905 886 893 823 702 598 550 512 470 484 501 492 382 408
8 12 6 5 4 31 40 22 3 8 25 36 39 36 47 36 32 22 53 88 52 15 12 9 4 8 14 17 17 14 10 5 3 0 2 3 3 1 1 1 149 196 133 0 2 2 20 249 460 573 434 357 462 573 628 588 577 637 890 917 992 1061 948 922 981 1108 1183 1197 1168 1102 922 789 798 796 742 726 723 726 738 675 767 808 763 646 630
13 11 12 11 30 29 30 8 3 10 24 34 34 29 23 17 33 42 41 20 20 16 11 6 2 2 5 8 9 7 7 6 5 2 0 0 0 0 0 82 193 226 187 130 14 1 1 17 187 354 419 452 509 562 691 742 829 828 744 783 987 1036 966 914 943 1043 1127 1152 1200 1104 859 835 905 862 843 882 871 846 765 779 797 716 693 655 567
12 6 13 17 43 38 31 8 11 17 31 39 28 30 23 21 38 55 19 3 6 5 3 6 4 1 1 2 1 4 7 6 7 6 4 6 20 80 183 242 255 240 214 158 128 2 67 188 372 457 506 518 512 585 736 767 824 840 927 898 954 1056 1088 1092 1086 1050 1025 1067 1089 1001 842 820 854 854 904 992 964 852 771 716 702 666 598 535 522
7 3 8 35 43 35 23 13 19 22 34 35 25 28 22 36 33 39 5 0 3 0 2 2 0 0 0 1 0 0 0 0 0 0 2 43 90 106 179 254 294 283 257 123 0 1 3 111 371 506 574 500 533 579 672 717 850 957 1063 1070 924 1112 1222 1185 1037 948 906 888 916 920 811 700 702 690 705 756 767 683 619 663 664 640 587 570 598
4 4 6 26 33 24 15 11 15 16 32 26 19 9 9 40 25 30 5 1 2 0 0 0 0 0 0 0 0 0 0 0 0 0 1 25 129 206 242 281 309 314 271 224 1 2 2 20 77 232 413 498 541 547 645 789 931 959 982 946 871 860 902 1057 986 827 735 707 649 649 671 639 612 580 590 635 619 662 789 812 730 627 542 550 576
0 4 4 10 16 16 8 14 14 15 28 22 13 10 15 14 16 26 3 2 7 4 5 0 0 1 0 0 0 0 2 2 4 4 5 53 165 214 213 219 240 253 206 187 157 1 1 3 43 168 266 465 572 676 736 778 920 928 945 929 882 800 653 801 934 972 927 946 875 812 769 718 718 698 715 790 917 986 934 732 557 540 554 578 640
0 0 0 4 19 16 8 14 14 19 15 13 6 8 17 14 15 18 9 12 13 7 5 4 2 0 0 0 0 0 0 0 2 5 7 7 6 18 58 97 125 92 93 117 138 139 179 182 68 26 61 135 282 426 532 638 722 766 837 780 820 756 708 510 539 676 750 817 888 974 1004 1006 923 882 907 970 994 900 706 608 568 570 589 631 665
0 0 0 0 8 13 12 17 21 19 17 13 8 13 14 11 12 15 13 14 16 9 7 4 3 0 0 1 0 0 0 2 1 0 1 2 3 1 0 3 3 3 4 4 4 4 5 4 3 3 15 43 176 306 430 551 596 497 744 879 801 780 674 666 609 534 497 520 511 639 906 872 871 844 828 853 856 779 685 662 633 604 598 610 656
0 0 0 2 8 9 12 20 17 15 12 11 7 13 22 14 17 13 11 13 19 14 6 6 3 0 1 0 2 0 0 0 3 3 0 0 1 7 10 7 5 4 4 4 5 6 56 92 181 220 254 281 296 316 360 411 453 512 602 746 818 832 832 820 854 822 748 664 602 659 688 700 718 710 707 719 724 756 754 730 644 598 583 602 603
0 0 0 6 8 10 12 16 8 10 9 8 5 11 11 12 21 17 23 13 16 16 11 9 10 4 3 2 5 6 8 0 0 10 15 13 4 6 14 13 6 6 6 5 7 78 118 157 186 240 276 334 361 371 406 457 484 543 592 594 589 578 635 719 737 722 650 566 538 544 554 557 581 618 628 590 582 578 602 622 611 586 564 512 467
0 0 1 2 3 6 8 10 7 7 6 7 6 10 11 20 14 16 24 24 15 13 14 8 10 3 6 5 5 5 5 3 4 9 34 33 20 12 7 7 11 17 15 15 39 61 91 62 152 185 224 262 306 374 407 420 432 470 495 576 632 646 653 666 641 587 547 548 599 583 514 446 451 505 541 549 571 596 591 582 566 550 568 606 625
0 0 2 3 4 4 4 5 5 6 8 6 6 8 9 9 10 11 19 24 12 11 11 14 19 14 6 4 6 7 6 8 11 14 21 37 22 10 5 5 7 5 15 19 25 43 66 62 45 9 9 23 181 223 256 282 376 368 293 365 303 403 499 533 628 597 631 573 522 483 452 384 418 509 526 525 494 462 444 445 450 496 494 453 398
0 0 5 5 4 4 5 6 5 5 7 7 6 9 8 10 11 12 12 14 10 10 10 13 22 21 15 6 6 6 10 12 10 14 14 15 16 10 10 10 12 10 11 14 5 12 6 7 17 19 8 10 59 106 99 32 8 13 96 340 403 369 361 366 366 390 477 457 420 393 404 454 508 488 450 413 358 358 383 360 354 404 398 385 344
0 0 4 5 3 6 5 7 5 6 5 10 5 9 9 10 11 11 15 16 15 9 10 9 22 31 19 11 8 1 7 10 13 8 8 8 8 11 16 14 12 14 15 13 10 3 12 7 6 7 7 8 26 54 13 6 5 42 46 4 4 228 303 352 434 442 401 345 325 358 404 451 491 486 424 379 345 353 374 358 343 335 344 356 438
1 2 4 5 3 4 4 4 3 2 4 6 6 12 11 10 10 11 8 13 14 15 10 12 12 22 18 7 6 2 11 14 8 13 8 9 12 8 12 12 15 17 13 15 14 17 12 13 7 8 10 10 9 8 10 10 10 55 198 225 4 22 49 1 182 242 276 335 367 359 346 412 460 499 472 320 79 386 421 352 324 352 375 387 361
3 0 2 2 2 2 3 2 1 4 4 8 7 10 8 6 7 6 9 7 13 10 7 8 10 16 21 26 19 11 8 10 11 11 10 6 15 5 10 15 10 14 13 14 18 20 18 13 8 15 31 28 16 28 9 10 11 11 72 78 69 118 3 3 98 274 314 270 199 174 270 386 468 502 374 181 319 147 3 3 101 476 512 429 383
5 0 0 0 0 1 2 4 4 2 3 1 0 1 7 6 10 9 10 9 14 14 8 8 9 10 13 27 23 14 8 5 7 8 12 12 14 15 18 12 13 11 12 7 17 17 19 18 18 9 1 6 8 9 10 11 13 3 9 10 1 3 8 3 50 5 49 114 65 16 35 140 399 347 225 329 287 263 242 233 249 242 233 209 176
5 0 0 0 0 1 2 2 5 6 0 0 0 1 2 8 12 11 10 10 12 10 9 9 8 9 11 16 12 13 8 4 4 4 6 7 10 13 15 20 22 13 16 18 17 17 15 15 16 16 8 3 4 8 11 2 6 9 8 8 7 8 17 15 5 7 8 12 15 2 3 6 98 251 192 189 151 99 58 43 11 18 3 3 3
4 2 0 0 0 0 2 2 6 7 1 3 4 6 7 12 16 22 23 12 10 11 8 9 8 7 6 7 6 7 5 0 1 1 1 0 2 2 3 5 8 4 8 9 11 11 12 13 14 8 13 8 5 3 4 1 1 1 1 8 11 10 9 8 5 4 4 5 4 2 3 4 11 150 168 171 151 118 58 43 27 24 2 3 5
0 0 0 0 1 0 1 1 5 3 1 2 6 6 9 13 16 24 26 13 9 9 7 9 9 7 6 3 4 3 2 0 0 0 0 0 0 0 0 1 2 0 1 1 0 0 0 2 3 2 2 6 2 2 3 4 4 3 1 3 6 6 5 6 5 4 2 2 1 4 2 2 2 9 11 52 37 16 7 6 4 1 2 3 5
0 0 0 0 0 0 2 2 5 1 2 4 2 1 7 8 14 18 32 19 9 8 4 7 8 9 3 0 0 1 2 1 0 0 0 0 0 0 0 1 1 0 0 0 0 0 0 0 1 1 0 2 3 2 2 3 2 3 3 3 4 4 5 4 3 5 4 2 3 3 3 3 2 3 19 22 11 5 6 9 11 10 8 5 4
0 0 0 0 0 0 0 0 0 0 1 2 0 0 4 3 5 15 26 24 10 6 6 5 11 10 2 0 0 0 0 0 1 0 0 0 0 0 1 1 2 1 0 0 0 0 0 0 0 0 0 1 0 0 1 2 2 3 6 6 4 5 4 2 2 4 6 5 5 3 2 1 1 0 0 0 0 1 2 3 4 6 5 5 4
0 0 0 0 0 0 0 0 0 0 0 0 0 0 0 1 5 7 19 30 22 1 9 1 1 13 4 0 0 0 0 0 0 0 0 0 0 0 0 2 2 2 1 1 1 0 0 1 0 1 1 2 1 0 1 1 2 2 2 2 2 2 3 1 0 0 0 0 2 4 6 5 3 4 6 4 2 2 4 5 3 5 6 6 8
Wind_Speed
26 26 24 25 25 26 25 25 27 27 26 26 24 21 20 19 19 19 18 18 20 19 17 16 14 13 14 14 13 11 12 13 14 17 19 20 21 22 22 21 23 26 27 26 27 26 26 25 25 25 26 23 24 24 24 24 26 27 29 29 29 31 30 28 25 23 24 26 25 24 27 26 24 23 21 20 21 20 19 18 18 18 18 19 18
27 27 27 27 27 26 25 25 25 25 25 26 25 23 21 20 19 19 18 18 19 19 19 19 18 16 15 16 16 13 13 13 11 13 15 16 18 22 24 22 24 24 27 26 27 27 27 26 26 26 28 24 24 23 24 25 26 28 30 30 31 31 31 30 28 26 22 25 24 26 26 26 23 26 23 22 20 23 21 21 20 19 19 20 20
25 27 28 28 27 26 24 24 24 25 25 26 27 27 25 24 23 22 21 21 20 19 18 19 19 19 19 18 20 17 15 13 13 13 12 12 14 18 21 23 23 23 23 25 26 29 27 26 27 29 30 26 25 26 27 27 29 29 29 31 31 30 31 30 30 27 26 25 26 25 26 28 25 24 25 24 24 25 23 23 22 22 21 20 21
24 nan nan nan 27 27 26 24 26 27 28 27 28 29 28 27 26 25 25 25 24 22 20 20 21 21 23 21 20 18 16 15 14 15 13 11 11 13 16 19 21 21 22 24 25 27 26 25 26 29 30 29 29 29 30 29 29 30 31 31 31 30 32 31 29 30 31 29 27 26 27 28 27 26 29 29 27 26 25 25 26 24 23 22 21
nan nan nan nan nan nan 28 27 28 28 29 28 28 28 28 28 28 27 26 26 27 26 24 22 22 23 24 24 22 21 19 17 14 14 13 12 11 13 14 15 17 19 23 23 23 25 27 25 27 28 31 30 30 30 32 30 31 31 30 32 32 33 34 32 31 31 32 29 28 28 28 28 29 30 31 29 29 29 28 27 27 27 27 25 24
nan nan nan nan nan nan 27 28 28 29 29 28 28 27 28 29 29 28 28 27 29 30 28 26 24 23 24 25 24 23 22 20 18 16 15 15 14 13 13 13 13 14 18 22 22 23 25 26 26 28 30 30 30 32 32 31 33 32 31 32 33 35 34 34 33 32 30 30 31 29 28 26 28 29 32 32 30 29 29 30 31 31 30 29 27
nan nan nan nan nan nan nan 27 27 28 29 29 29 29 29 29 30 30 30 29 30 31 31 29 27 25 24 24 25 24 23 22 20 18 17 16 13 13 13 13 13 14 16 18 20 22 23 24 25 27 27 28 30 32 34 32 33 32 33 33 34 35 35 35 34 33 31 31 31 30 28 29 28 27 33 33 30 30 30 32 30 33 33 32 30
nan nan nan nan nan nan nan nan 30 29 30 30 nan nan nan 32 31 31 31 31 32 33 34 32 30 28 26 25 26 26 25 23 21 20 19 17 16 15 15 13 11 11 11 12 16 22 23 23 22 24 26 28 28 32 34 34 34 32 34 36 37 35 36 37 36 35 33 32 32 32 31 26 28 29 35 35 32 30 31 32 30 31 33 34 32
nan nan nan nan nan nan nan nan 35 nan nan nan nan nan nan nan nan 33 32 32 32 34 36 35 33 31 29 27 26 26 26 24 24 22 19 17 17 16 14 13 12 11 11 11 13 17 21 23 22 23 24 23 24 28 31 33 36 33 34 37 38 38 38 38 37 37 35 33 32 32 30 30 29 32 35 34 31 28 34 34 31 31 34 35 33
nan nan nan nan nan nan nan nan nan nan nan nan nan nan nan nan nan nan 34 33 33 34 36 37 35 33 32 30 28 28 27 27 22 16 16 19 18 18 17 15 14 13 12 11 12 14 16 17 20 17 18 18 19 22 23 24 26 33 37 37 39 39 39 39 38 37 36 35 32 34 33 30 31 34 34 33 33 34 36 35 32 32 38 34 34
nan nan nan nan nan nan nan nan nan nan nan nan nan nan nan nan nan nan nan 33 32 34 36 37 37 36 34 32 30 29 28 28 22 21 19 15 17 18 18 18 17 16 14 14 14 14 14 14 17 18 19 22 24 21 21 20 21 23 29 33 35 39 41 41 40 39 39 37 37 38 36 32 32 36 35 34 35 35 34 36 33 36 36 35 30
nan nan nan nan nan nan nan nan nan nan nan nan nan nan nan nan nan nan nan nan 31 31 33 36 38 37 36 34 32 31 29 26 23 23 20 18 16 19 20 19 19 19 18 16 16 16 15 16 15 18 21 25 29 31 27 26 25 25 26 28 30 33 36 40 41 41 40 39 39 39 38 35 34 38 37 37 36 37 35 36 36 35 36 35 33
nan nan nan nan nan nan nan nan nan nan nan nan nan nan nan nan nan nan nan nan 31 30 30 33 35 37 36 35 34 33 32 29 27 25 24 22 20 19 22 22 22 22 21 18 18 18 18 17 17 18 19 14 21 27 32 34 29 24 25 25 26 32 37 32 34 40 44 39 39 38 37 37 36 36 38 40 41 36 37 36 35 36 35 33 30
nan nan nan nan nan nan nan nan nan nan nan nan nan nan nan nan nan nan nan nan nan nan 28 29 32 34 35 34 34 33 32 31 28 27 26 26 25 23 25 23 22 22 22 21 20 18 17 18 16 17 18 19 21 23 28 33 37 36 35 35 36 33 30 27 30 32 37 42 41 36 37 40 36 36 40 42 42 37 38 36 37 36 36 32 29
nan nan nan nan nan nan nan nan nan nan nan nan nan nan nan nan nan nan nan 33 33 nan 29 28 29 31 32 32 32 31 31 28 28 28 28 28 28 27 29 27 25 24 23 22 21 20 18 19 17 16 18 18 23 23 24 27 32 35 36 37 35 33 34 36 37 39 40 43 41 39 39 41 38 37 42 43 39 38 39 39 39 38 37 37 36
nan nan nan nan nan nan nan nan nan nan nan nan nan nan nan nan nan nan 35 34 33 32 30 28 27 29 30 30 29 28 28 26 26 27 28 30 30 33 32 30 28 27 26 25 24 23 22 22 21 19 18 17 16 15 20 26 27 28 33 36 36 35 33 32 32 36 42 43 40 41 41 40 39 39 39 42 42 42 44 44 46 45 42 39 36
nan nan nan nan 42 nan nan nan nan nan nan nan nan nan nan nan nan 37 36 35 34 33 nan nan 28 28 29 30 29 27 28 26 25 25 26 28 32 33 33 32 31 30 29 29 29 28 27 25 24 24 21 19 16 19 22 20 25 26 28 32 36 37 35 33 31 32 37 37 36 37 36 36 37 36 37 37 41 45 48 45 42 46 44 40 39
nan nan nan nan nan nan nan nan nan nan nan nan nan nan nan nan nan 38 37 35 34 nan nan nan 29 30 29 29 30 28 28 28 27 26 27 27 30 30 31 32 32 32 33 33 34 33 31 24 23 26 24 23 21 21 23 23 25 23 25 27 30 34 35 34 35 34 34 35 36 37 38 39 39 40 40 40 40 45 45 41 43 48 43 41 40
nan nan nan nan nan nan nan nan nan nan nan nan nan nan nan nan nan nan nan nan nan nan nan nan nan nan nan 30 28 29 29 30 29 28 28 29 31 31 30 31 31 33 34 34 35 35 34 32 25 25 26 25 23 23 23 25 26 23 25 27 27 27 30 34 37 38 38 38 39 41 42 40 43 46 46 44 42 43 44 41 44 46 43 42 42
nan nan nan nan nan nan nan nan nan nan nan nan nan nan nan nan nan nan nan nan nan nan nan nan nan nan nan nan nan 31 31 31 31 30 31 31 31 34 32 31 30 32 34 34 34 35 36 36 32 29 27 24 23 24 25 27 28 26 25 27 26 19 25 31 37 39 39 39 38 41 41 44 44 43 42 43 43 43 40 40 44 49 46 41 41
nan nan nan nan nan nan nan nan nan nan nan nan nan nan nan nan nan nan nan nan nan nan nan nan nan nan nan nan nan nan 33 32 32 32 33 33 33 36 35 32 31 31 33 33 34 34 35 37 37 33 31 28 26 24 22 22 25 30 30 26 22 19 25 30 31 31 37 39 40 41 42 41 42 41 41 40 41 41 40 39 42 48 45 43 39
nan nan nan nan nan nan nan nan nan nan nan nan nan nan nan nan nan nan nan nan nan nan nan nan nan nan nan nan nan nan 34 32 33 34 34 35 35 35 nan 34 33 33 32 33 34 35 35 36 36 34 32 31 30 28 26 25 24 33 28 19 16 21 25 29 33 36 37 36 37 39 40 39 40 41 41 40 41 41 42 41 43 42 43 43 43
nan nan nan 37 nan nan nan nan nan nan nan nan nan nan nan nan nan nan nan nan nan nan nan nan nan nan nan nan nan nan nan 35 34 34 35 nan nan nan nan nan nan nan nan 33 34 36 37 37 35 30 32 32 31 31 30 28 30 34 25 21 21 19 23 30 37 32 33 34 34 32 34 35 37 38 40 40 42 43 43 45 52 51 46 40 39
nan nan nan nan nan nan nan nan nan nan nan nan nan nan nan nan nan nan nan nan nan nan nan nan nan nan nan nan nan nan nan nan nan 35 nan nan nan nan nan nan nan nan 35 34 35 36 37 38 38 41 41 37 33 31 32 33 35 33 30 25 23 23 28 31 33 29 33 33 32 29 30 33 35 35 37 40 43 51 50 48 46 44 40 38 39
nan nan nan nan nan nan nan nan nan nan nan nan nan nan nan nan nan nan nan nan nan nan nan nan nan nan nan nan nan nan nan nan nan nan nan nan nan nan nan 36 nan nan 38 35 33 36 36 34 34 35 36 36 35 35 34 33 33 35 33 30 27 33 33 36 36 31 31 31 31 29 29 30 32 33 38 43 44 43 43 41 43 42 40 38 36
nan nan nan nan nan nan nan nan nan nan nan 29 nan nan nan nan nan nan nan nan nan nan nan nan nan nan nan nan nan nan nan nan nan nan nan nan 37 nan 38 38 39 39 38 35 33 32 34 34 35 36 38 nan nan 41 41 40 38 38 38 35 37 35 36 37 39 37 32 30 31 30 28 31 32 36 41 41 38 36 38 39 41 38 39 37 36
nan nan nan nan nan nan nan nan 25 nan nan nan nan nan nan nan nan nan nan nan nan nan nan nan nan nan nan nan nan nan nan nan nan nan nan nan 40 41 nan nan nan nan nan 40 38 37 37 38 41 40 40 39 nan nan 39 39 42 43 44 43 41 39 37 38 39 38 35 32 31 29 30 31 35 41 40 38 36 36 38 39 40 38 39 38 36
nan nan nan nan nan nan nan nan nan nan nan nan nan nan nan nan nan nan nan nan nan nan nan nan nan nan nan nan nan nan nan nan nan nan nan nan nan nan nan nan nan nan nan nan nan 40 38 39 40 43 44 44 44 45 45 45 45 44 44 44 43 40 36 35 37 39 36 34 32 32 33 34 33 35 37 37 35 35 39 40 38 39 39 38 35
nan nan nan nan nan nan nan nan nan nan nan nan nan nan nan nan nan nan nan nan nan nan nan nan nan nan nan nan nan nan nan nan nan nan nan nan nan nan nan nan 41 42 42 nan nan nan nan 39 40 42 44 45 46 46 46 47 47 46 44 44 44 43 42 41 38 36 37 37 35 34 34 34 32 34 35 36 35 37 39 37 36 37 39 38 33
nan nan nan nan nan nan nan nan nan nan nan nan nan nan nan nan nan nan nan nan nan nan nan nan nan nan nan nan nan nan nan nan nan nan nan nan nan nan nan nan 36 38 39 40 nan nan nan nan 40 41 43 45 45 45 47 48 47 48 49 46 45 44 43 42 40 39 39 38 37 36 35 36 35 35 35 35 37 40 40 39 37 38 37 38 34
nan nan nan nan nan nan nan nan nan nan nan nan nan nan nan nan nan nan nan nan nan nan nan nan nan nan nan nan nan nan nan nan nan nan nan nan nan nan 35 37 39 39 40 43 42 nan nan 39 40 40 40 42 44 44 46 46 47 48 49 49 47 46 45 44 43 44 42 40 39 37 37 37 37 37 37 37 38 40 42 42 40 39 37 36 35
nan nan nan nan nan nan nan nan nan nan nan nan nan nan nan nan nan nan nan nan nan nan nan nan nan nan nan nan nan nan nan nan nan nan nan nan nan 35 36 38 38 38 38 40 nan nan nan 37 38 39 40 41 43 44 45 45 46 46 47 49 48 49 49 47 46 45 43 41 39 38 38 38 38 38 38 37 39 38 40 42 41 39 37 37 36
nan nan nan nan nan nan nan nan nan nan nan nan nan nan nan nan nan nan nan nan nan nan nan nan nan nan nan nan nan nan nan nan nan nan nan nan 35 36 36 35 35 36 40 40 nan nan nan nan nan 36 38 40 41 43 44 45 45 46 46 45 45 46 46 46 47 46 45 44 43 41 40 39 39 38 37 37 39 37 40 41 42 41 41 39 39
nan nan nan nan nan nan nan nan nan nan nan nan nan nan nan nan nan nan nan nan nan nan nan nan nan nan nan nan nan nan nan nan nan nan nan nan 35 34 34 33 31 34 36 35 35 nan nan nan nan 34 35 37 40 42 44 44 45 45 46 46 45 46 47 50 47 45 45 46 46 44 43 42 41 39 37 37 38 39 39 41 42 42 42 41 41
nan nan nan nan nan nan nan nan nan nan nan nan nan nan nan nan nan nan nan nan nan nan nan nan nan nan nan nan nan nan nan nan nan nan nan nan nan nan nan nan 38 nan nan 33 32 31 31 32 nan nan nan 35 37 40 41 42 41 42 44 45 45 46 47 49 48 46 45 46 46 46 45 44 43 42 40 39 38 36 36 39 41 42 43 43 42
nan nan nan nan nan nan nan nan nan nan nan nan nan nan nan nan nan nan nan nan nan nan nan nan nan nan nan nan nan nan nan nan nan nan nan nan nan nan nan nan nan nan nan nan nan nan nan nan nan nan nan nan 37 38 39 40 39 39 40 41 40 41 43 46 48 47 45 46 49 45 44 44 43 42 42 40 39 38 38 38 39 40 42 44 45
nan nan nan nan nan nan nan nan nan nan nan nan nan nan nan nan nan nan nan nan nan nan nan nan nan nan nan nan nan nan nan nan nan nan nan nan nan nan nan nan nan nan nan nan nan nan nan nan 37 38 39 40 42 43 44 45 45 44 42 41 39 38 40 42 44 44 45 46 49 47 46 46 44 43 43 40 40 39 38 39 40 40 41 42 45
nan nan nan nan nan nan nan nan nan nan nan nan nan nan nan nan nan nan nan nan nan nan nan nan nan nan nan nan nan nan nan nan nan nan nan nan nan nan nan nan nan nan nan nan nan nan 36 34 35 36 37 39 41 42 43 45 45 45 46 46 48 51 55 51 50 50 49 49 49 47 45 46 45 46 45 42 40 40 40 41 42 42 43 42 43
nan nan nan nan nan nan nan nan nan nan nan nan nan nan nan nan nan nan nan nan nan nan nan nan nan nan nan nan nan nan nan nan nan nan nan nan nan nan nan nan nan nan nan nan nan nan nan nan 35 34 35 36 38 40 41 42 42 44 44 45 47 49 53 51 51 50 51 51 51 52 51 50 48 47 46 45 43 42 40 40 41 42 41 41 40
nan nan nan nan nan nan nan nan nan nan nan nan nan nan nan nan nan nan nan nan nan nan nan nan nan nan nan nan nan nan nan nan nan nan nan nan nan nan nan nan nan nan nan nan nan nan nan nan nan nan nan nan 36 37 39 40 41 42 42 44 45 47 49 49 48 48 47 46 46 47 49 49 48 48 49 49 47 45 43 43 43 43 41 39 38
nan nan nan nan nan nan nan nan nan nan nan nan nan nan nan nan nan nan nan nan nan nan nan nan nan nan nan nan nan nan nan nan nan nan nan nan nan nan nan nan nan nan nan nan nan nan nan nan nan nan nan nan nan 34 nan nan nan nan nan 44 46 46 46 47 47 46 45 45 45 44 45 46 47 48 49 49 48 47 46 44 43 42 42 39 36
nan nan nan nan nan nan nan nan nan nan nan nan nan nan nan nan nan nan nan nan nan nan nan nan nan nan nan nan nan nan nan nan nan nan nan nan nan nan nan nan nan nan nan nan nan nan nan nan nan nan nan nan nan nan nan nan nan nan nan nan nan 46 46 45 44 44 44 43 44 43 43 44 45 47 47 46 48 48 48 49 50 49 48 45 44
nan nan nan nan nan nan nan nan nan nan nan nan nan nan nan nan nan nan nan nan nan nan nan nan nan nan nan nan nan nan nan nan nan nan nan nan nan nan nan nan nan nan nan nan nan nan nan nan nan nan nan nan nan nan nan nan nan nan 39 42 nan nan nan nan 43 42 41 41 41 42 42 41 42 43 42 44 nan 48 48 49 52 55 54 53 51
nan nan nan nan nan nan nan nan nan nan nan nan nan nan nan nan nan nan nan nan nan nan nan nan nan nan nan nan nan nan nan nan nan nan nan nan nan nan nan nan nan nan nan nan nan nan nan nan nan nan nan nan nan nan nan nan nan nan nan nan nan 40 nan nan nan 40 39 39 40 42 41 40 40 41 40 43 48 49 nan nan 53 53 50 48 46
nan nan nan nan nan nan nan nan nan nan nan nan nan nan nan nan nan nan nan nan nan nan nan nan nan nan nan nan nan nan nan nan nan nan nan nan nan nan nan nan nan nan nan nan nan nan nan nan nan nan nan nan nan nan nan nan nan nan nan nan nan nan nan nan nan nan nan 35 nan nan nan 38 38 41 42 47 51 52 52 52 51 49 48 48 46
nan nan nan nan nan nan nan nan nan nan nan nan nan nan nan nan nan nan nan nan nan nan nan nan nan nan nan nan nan nan nan nan nan nan nan nan nan nan nan nan nan nan nan nan nan nan nan nan nan nan nan nan nan nan nan nan nan nan nan nan nan nan nan nan nan nan nan nan nan nan nan nan nan 38 41 46 49 nan nan nan nan nan nan nan nan
nan nan nan nan nan nan nan nan nan nan nan nan nan nan nan nan nan nan nan nan nan nan nan nan nan nan nan nan nan nan nan nan nan nan nan nan nan nan nan nan nan nan nan nan nan nan nan nan nan nan nan nan nan nan nan nan nan nan nan nan nan nan nan nan nan nan nan nan nan nan nan nan nan 35 34 36 38 42 nan nan nan nan nan nan nan
nan nan nan nan nan nan nan nan nan nan nan nan nan nan nan nan nan nan nan nan nan nan nan nan nan nan nan nan nan nan nan nan nan nan nan nan nan nan nan nan nan nan nan nan nan nan nan nan nan nan nan nan nan nan nan nan nan nan nan nan nan nan nan nan nan nan nan nan nan nan nan nan nan nan nan nan nan nan nan nan nan nan nan nan nan
nan nan nan nan nan nan nan nan nan nan nan nan nan nan nan nan nan nan nan nan nan nan nan nan nan nan nan nan nan nan nan nan nan nan nan nan nan nan nan nan nan nan nan nan nan nan nan nan nan nan nan nan nan nan nan nan nan nan nan nan nan nan nan nan nan nan nan nan nan nan nan nan nan nan nan nan nan nan nan nan nan nan nan nan nan
nan nan nan nan nan nan nan nan nan nan nan nan nan nan nan nan nan nan nan nan nan nan nan nan nan nan nan nan nan nan nan nan nan nan nan nan nan nan nan nan nan nan nan nan nan nan nan nan nan nan nan nan nan nan nan nan nan nan nan nan nan nan nan nan nan nan nan nan nan nan nan nan nan nan nan nan nan nan nan nan nan nan nan nan nan
nan nan nan nan nan nan nan nan nan nan nan nan nan nan nan nan nan nan nan nan nan nan nan nan nan nan nan nan nan nan nan nan nan nan nan nan nan nan nan nan nan nan nan nan nan nan nan nan nan nan nan nan nan nan nan nan nan nan nan nan nan nan nan nan nan nan nan nan nan nan nan nan nan nan nan nan nan nan nan nan nan nan nan nan nan
Wind_Direction
287 289 290 287 285 282 282 281 276 276 277 280 282 286 285 284 290 292 291 295 299 298 296 292 285 284 289 289 286 289 298 299 297 283 274 264 257 254 251 256 261 259 258 257 250 243 240 239 241 245 248 247 243 242 242 242 243 244 246 247 245 245 248 247 246 240 239 249 245 243 247 251 250 256 254 253 254 257 260 259 260 262 265 265 268
283 283 284 284 279 277 275 277 273 270 271 277 282 285 287 287 287 285 287 293 296 293 291 291 288 282 285 288 285 288 299 298 297 292 287 276 265 257 253 254 261 260 255 252 250 246 244 240 239 242 247 246 246 244 243 243 245 247 248 250 250 251 251 247 243 245 237 241 244 247 247 252 245 254 259 258 258 259 262 260 259 261 261 263 264
282 282 281 279 276 277 276 270 266 265 267 272 275 280 285 288 285 286 289 293 292 287 281 282 282 281 280 277 282 286 291 292 297 303 304 296 278 266 261 259 263 266 262 252 245 243 244 242 240 241 242 243 245 243 243 243 246 249 250 249 251 250 251 250 247 246 245 239 242 239 247 251 253 250 255 254 254 259 262 263 263 260 259 262 263
278 nan nan nan 276 276 273 268 263 263 264 267 268 273 278 282 282 283 287 288 288 285 280 276 276 275 280 275 276 279 283 288 297 304 311 313 301 285 275 269 265 266 265 260 251 244 242 240 241 244 244 243 244 244 244 244 245 245 248 249 251 251 250 251 250 248 248 244 241 240 238 245 250 249 247 249 251 256 259 258 259 260 261 262 264
nan nan nan nan nan nan 270 271 269 266 266 268 266 267 269 273 276 278 279 278 278 278 276 275 274 274 277 278 277 280 283 286 289 293 299 306 310 302 297 289 277 268 263 264 259 251 247 243 241 243 247 246 246 247 247 249 246 247 247 249 249 249 249 250 249 249 251 252 246 243 243 245 249 250 254 252 253 255 253 256 260 261 261 261 261
nan nan nan nan nan nan 268 269 270 271 271 271 270 270 269 269 269 271 273 272 272 273 272 271 270 270 269 269 271 274 279 280 280 283 288 293 296 301 301 303 294 283 272 268 264 253 246 244 241 243 245 245 246 248 248 250 249 248 250 250 251 252 253 251 250 251 251 252 255 246 244 246 246 252 255 259 258 258 258 257 255 257 259 259 260
nan nan nan nan nan nan nan 271 273 273 275 277 276 275 272 269 267 266 267 267 268 268 268 268 268 267 266 265 266 266 265 268 273 278 280 283 286 286 290 295 298 292 283 273 263 255 250 244 241 243 244 244 244 247 249 249 249 251 253 254 253 254 253 254 255 254 252 250 252 256 251 249 251 247 253 256 259 261 263 261 259 263 263 263 261
nan nan nan nan nan nan nan nan 277 275 275 273 nan nan nan 272 269 267 265 262 264 266 266 266 266 266 266 266 266 263 261 261 263 269 272 278 281 281 279 273 273 278 281 279 268 261 254 250 247 248 248 245 243 245 248 248 247 248 250 252 254 254 253 254 254 253 253 253 253 254 257 253 253 254 253 254 256 257 262 265 264 263 266 268 268
nan nan nan nan nan nan nan nan 280 nan nan nan nan nan nan nan nan 268 265 262 261 263 266 265 265 264 264 266 265 267 267 264 263 265 268 272 275 277 274 270 266 262 264 267 268 267 264 258 254 250 252 253 251 248 249 248 246 245 247 250 253 253 251 252 252 252 252 252 251 251 254 259 260 259 258 259 262 264 263 265 265 264 263 262 264
nan nan nan nan nan nan nan nan nan nan nan nan nan nan nan nan nan nan 264 262 260 260 261 264 263 263 261 261 265 267 268 267 261 246 248 261 267 264 265 265 260 256 254 255 258 265 267 260 254 254 253 251 249 245 243 248 253 249 247 249 251 252 252 252 252 251 251 250 250 251 255 260 264 265 263 262 261 257 258 263 263 262 262 260 256
nan nan nan nan nan nan nan nan nan nan nan nan nan nan nan nan nan nan nan 261 258 258 260 261 263 263 263 262 260 264 266 267 261 266 264 253 249 253 257 256 255 253 253 252 250 254 259 264 263 256 249 247 246 254 258 250 244 245 249 252 252 254 253 252 251 252 250 248 247 249 254 257 260 262 263 261 261 264 263 262 260 258 262 262 260
nan nan nan nan nan nan nan nan nan nan nan nan nan nan nan nan nan nan nan nan 256 256 255 258 262 263 263 262 262 260 260 259 262 266 265 263 254 253 249 248 249 254 255 254 253 250 248 252 258 260 259 255 251 248 247 245 241 238 233 235 246 255 254 254 252 250 250 250 248 250 254 255 254 257 259 259 259 260 261 262 262 262 261 261 261
nan nan nan nan nan nan nan nan nan nan nan nan nan nan nan nan nan nan nan nan 259 254 252 253 256 261 263 261 258 258 257 256 259 261 263 264 261 257 255 250 247 244 247 251 255 257 255 251 249 255 259 265 257 254 251 250 252 253 256 248 237 238 243 248 252 251 252 253 251 251 255 253 252 254 258 258 258 259 261 262 263 262 261 262 263
nan nan nan nan nan nan nan nan nan nan nan nan nan nan nan nan nan nan nan nan nan nan 252 250 253 256 259 260 259 258 256 256 255 258 261 262 261 258 258 255 252 247 243 244 247 250 254 255 251 251 255 260 262 260 256 253 249 245 245 246 247 246 243 243 249 252 252 252 252 251 252 255 252 251 255 258 260 260 263 263 265 265 265 266 265
nan nan nan nan nan nan nan nan nan nan nan nan nan nan nan nan nan nan nan 262 260 nan 252 248 250 254 255 256 259 258 259 254 253 252 255 258 259 256 257 255 254 253 250 248 247 249 250 251 250 248 250 253 261 263 262 259 255 250 246 246 251 255 253 250 249 251 251 251 251 249 247 253 254 252 253 257 261 261 263 264 267 267 264 260 256
nan nan nan nan nan nan nan nan nan nan nan nan nan nan nan nan nan nan 264 262 261 258 256 252 247 248 253 254 255 256 258 252 252 252 250 252 256 257 258 257 254 252 252 252 251 251 250 252 252 251 251 251 253 263 266 263 260 256 252 248 247 251 253 256 258 254 252 249 248 247 247 250 251 250 251 255 257 257 258 258 258 262 264 265 265
nan nan nan nan 285 nan nan nan nan nan nan nan nan nan nan nan nan 268 264 263 259 255 nan nan 248 247 247 251 252 253 257 255 250 251 251 250 254 255 257 257 256 254 253 253 256 258 259 258 257 255 254 254 256 263 262 259 255 256 256 251 246 246 247 249 252 254 257 257 247 244 244 245 247 249 252 257 257 256 257 258 261 263 263 263 264
nan nan nan nan nan nan nan nan nan nan nan nan nan nan nan nan nan 265 262 259 257 nan nan nan 250 250 248 248 251 249 250 253 251 249 251 252 256 254 254 255 257 257 256 256 259 261 263 267 262 260 257 256 258 262 267 265 264 264 264 261 253 247 245 247 248 249 255 253 249 246 245 244 246 248 252 252 251 252 257 257 257 260 261 261 260
nan nan nan nan nan nan nan nan nan nan nan nan nan nan nan nan nan nan nan nan nan nan nan nan nan nan nan 251 240 243 248 248 250 253 252 254 256 256 255 255 254 255 256 257 259 261 262 263 262 257 254 253 257 264 270 272 271 272 270 266 261 256 251 249 248 246 246 246 245 244 243 243 243 244 244 243 245 249 254 255 255 258 258 258 257
nan nan nan nan nan nan nan nan nan nan nan nan nan nan nan nan nan nan nan nan nan nan nan nan nan nan nan nan nan 249 248 250 249 249 254 255 257 260 259 255 251 252 256 256 257 260 262 263 264 266 264 255 247 250 256 264 263 261 264 265 265 263 256 251 250 249 247 247 244 246 246 247 248 248 249 249 250 250 252 254 256 256 254 254 257
nan nan nan nan nan nan nan nan nan nan nan nan nan nan nan nan nan nan nan nan nan nan nan nan nan nan nan nan nan nan 253 248 248 247 247 252 254 259 259 256 252 250 252 256 258 257 259 261 262 266 270 267 263 257 251 254 265 262 254 251 261 261 254 254 251 251 249 249 249 251 251 250 251 253 252 255 257 259 257 261 264 264 261 257 257
nan nan nan nan nan nan nan nan nan nan nan nan nan nan nan nan nan nan nan nan nan nan nan nan nan nan nan nan nan nan 249 245 247 246 248 249 251 256 nan 257 256 251 249 252 256 257 259 260 261 262 266 268 269 266 266 266 263 262 265 271 254 242 247 250 252 253 251 249 248 248 250 250 250 252 254 254 256 257 258 260 264 266 262 256 250
nan nan nan 292 nan nan nan nan nan nan nan nan nan nan nan nan nan nan nan nan nan nan nan nan nan nan nan nan nan nan nan 253 248 247 246 nan nan nan nan nan nan nan nan 251 252 254 255 256 257 256 261 263 265 266 268 267 262 264 268 264 264 261 256 255 253 251 254 253 252 251 252 251 250 251 252 253 253 255 255 252 252 254 255 255 256
nan nan nan nan nan nan nan nan nan nan nan nan nan nan nan nan nan nan nan nan nan nan nan nan nan nan nan nan nan nan nan nan nan 250 nan nan nan nan nan nan nan nan 256 253 250 251 251 254 256 254 250 249 255 261 263 263 262 264 267 264 263 264 260 259 260 256 256 257 259 258 254 251 250 248 248 249 249 250 252 254 258 261 261 257 254
nan nan nan nan nan nan nan nan nan nan nan nan nan nan nan nan nan nan nan nan nan nan nan nan nan nan nan nan nan nan nan nan nan nan nan nan nan nan nan 250 nan nan 258 254 251 251 251 250 247 248 249 249 250 249 253 260 266 264 263 261 260 259 260 260 261 261 259 263 264 263 257 252 250 247 247 250 251 255 256 255 256 254 253 253 253
nan nan nan nan nan nan nan nan nan nan nan 275 nan nan nan nan nan nan nan nan nan nan nan nan nan nan nan nan nan nan nan nan nan nan nan nan 255 nan 254 251 248 246 250 251 248 244 242 242 243 245 249 nan nan 257 255 253 258 265 266 265 259 259 259 261 264 266 265 263 266 266 262 256 253 253 254 255 255 255 255 254 253 251 252 252 251
nan nan nan nan nan nan nan nan 287 nan nan nan nan nan nan nan nan nan nan nan nan nan nan nan nan nan nan nan nan nan nan nan nan nan nan nan 257 254 nan nan nan nan nan 252 250 249 245 243 246 248 250 249 nan nan 251 252 254 259 261 261 259 257 258 262 265 266 264 262 262 265 263 259 256 258 259 260 259 259 261 258 256 253 254 252 251
nan nan nan nan nan nan nan nan nan nan nan nan nan nan nan nan nan nan nan nan nan nan nan nan nan nan nan nan nan nan nan nan nan nan nan nan nan nan nan nan nan nan nan nan nan 248 244 243 244 246 247 246 248 251 253 254 255 256 259 259 258 258 258 260 261 261 261 260 258 257 259 262 263 264 263 263 262 262 264 264 261 258 256 254 257
nan nan nan nan nan nan nan nan nan nan nan nan nan nan nan nan nan nan nan nan nan nan nan nan nan nan nan nan nan nan nan nan nan nan nan nan nan nan nan nan 254 255 255 nan nan nan nan 248 246 245 247 247 248 248 249 251 254 255 256 258 258 256 255 256 258 261 262 260 259 259 260 261 263 263 264 265 265 266 269 269 267 264 260 260 267
nan nan nan nan nan nan nan nan nan nan nan nan nan nan nan nan nan nan nan nan nan nan nan nan nan nan nan nan nan nan nan nan nan nan nan nan nan nan nan nan 258 257 254 250 nan nan nan nan 250 248 248 249 248 246 247 249 250 252 255 257 257 256 256 256 255 255 257 259 259 260 260 261 261 264 266 268 266 265 268 271 268 266 265 265 270
nan nan nan nan nan nan nan nan nan nan nan nan nan nan nan nan nan nan nan nan nan nan nan nan nan nan nan nan nan nan nan nan nan nan nan nan nan nan 255 255 256 257 256 256 259 nan nan 254 251 249 248 250 252 250 248 247 248 248 250 252 255 257 256 255 254 254 255 256 258 259 260 262 262 263 265 267 267 266 266 268 268 267 266 264 266
nan nan nan nan nan nan nan nan nan nan nan nan nan nan nan nan nan nan nan nan nan nan nan nan nan nan nan nan nan nan nan nan nan nan nan nan nan 258 257 255 254 257 257 260 nan nan nan 255 252 250 249 248 250 252 251 248 247 248 249 250 253 256 256 254 254 255 255 256 257 258 259 260 261 262 262 264 265 267 267 266 267 267 266 264 264
nan nan nan nan nan nan nan nan nan nan nan nan nan nan nan nan nan nan nan nan nan nan nan nan nan nan nan nan nan nan nan nan nan nan nan nan 252 255 256 257 258 259 261 261 nan nan nan nan nan 251 251 250 250 250 252 251 249 246 247 249 251 253 255 254 253 254 255 255 256 256 257 258 259 260 263 265 267 268 266 265 264 264 264 262 262
nan nan nan nan nan nan nan nan nan nan nan nan nan nan nan nan nan nan nan nan nan nan nan nan nan nan nan nan nan nan nan nan nan nan nan nan 251 251 258 260 258 265 267 258 256 nan nan nan nan 251 250 251 252 253 254 253 251 249 248 248 248 249 249 251 251 252 252 253 253 254 255 256 257 258 259 261 263 265 266 266 265 264 263 262 262
nan nan nan nan nan nan nan nan nan nan nan nan nan nan nan nan nan nan nan nan nan nan nan nan nan nan nan nan nan nan nan nan nan nan nan nan nan nan nan nan 252 nan nan 262 260 258 257 257 nan nan nan 253 251 251 252 253 254 252 251 248 248 249 250 252 253 253 253 252 252 253 254 254 255 256 256 258 261 265 267 266 266 265 262 260 261
nan nan nan nan nan nan nan nan nan nan nan nan nan nan nan nan nan nan nan nan nan nan nan nan nan nan nan nan nan nan nan nan nan nan nan nan nan nan nan nan nan nan nan nan nan nan nan nan nan nan nan nan 248 249 249 251 253 252 253 252 250 252 254 254 254 254 254 253 254 253 254 254 256 258 258 259 261 263 264 265 265 266 265 261 260
nan nan nan nan nan nan nan nan nan nan nan nan nan nan nan nan nan nan nan nan nan nan nan nan nan nan nan nan nan nan nan nan nan nan nan nan nan nan nan nan nan nan nan nan nan nan nan nan 251 251 250 249 249 247 246 246 245 244 244 245 249 250 253 255 254 254 253 253 254 256 256 256 258 260 262 261 260 262 263 264 265 266 268 267 264
nan nan nan nan nan nan nan nan nan nan nan nan nan nan nan nan nan nan nan nan nan nan nan nan nan nan nan nan nan nan nan nan nan nan nan nan nan nan nan nan nan nan nan nan nan nan 253 254 252 251 250 250 250 249 248 246 246 247 245 244 244 245 241 244 243 243 243 245 246 248 253 256 257 259 261 262 261 261 263 265 265 265 267 269 266
nan nan nan nan nan nan nan nan nan nan nan nan nan nan nan nan nan nan nan nan nan nan nan nan nan nan nan nan nan nan nan nan nan nan nan nan nan nan nan nan nan nan nan nan nan nan nan nan 251 251 250 250 249 249 248 247 247 247 246 246 245 246 245 244 244 245 245 243 242 242 243 246 250 254 259 261 261 260 261 264 265 264 265 266 268
nan nan nan nan nan nan nan nan nan nan nan nan nan nan nan nan nan nan nan nan nan nan nan nan nan nan nan nan nan nan nan nan nan nan nan nan nan nan nan nan nan nan nan nan nan nan nan nan nan nan nan nan 249 249 249 248 248 245 246 246 245 245 245 244 243 244 245 245 246 244 243 243 244 246 250 254 256 259 261 263 264 265 264 264 266
nan nan nan nan nan nan nan nan nan nan nan nan nan nan nan nan nan nan nan nan nan nan nan nan nan nan nan nan nan nan nan nan nan nan nan nan nan nan nan nan nan nan nan nan nan nan nan nan nan nan nan nan nan 250 nan nan nan nan nan 245 246 246 245 244 243 243 242 243 243 243 243 241 242 243 245 248 250 253 255 259 264 266 264 264 265
nan nan nan nan nan nan nan nan nan nan nan nan nan nan nan nan nan nan nan nan nan nan nan nan nan nan nan nan nan nan nan nan nan nan nan nan nan nan nan nan nan nan nan nan nan nan nan nan nan nan nan nan nan nan nan nan nan nan nan nan nan 245 245 245 243 242 241 243 242 240 240 238 238 241 244 246 251 253 256 259 259 259 261 264 268
nan nan nan nan nan nan nan nan nan nan nan nan nan nan nan nan nan nan nan nan nan nan nan nan nan nan nan nan nan nan nan nan nan nan nan nan nan nan nan nan nan nan nan nan nan nan nan nan nan nan nan nan nan nan nan nan nan nan 246 245 nan nan nan nan 243 242 242 243 243 242 239 238 237 239 240 245 nan 252 254 255 258 258 257 256 256
nan nan nan nan nan nan nan nan nan nan nan nan nan nan nan nan nan nan nan nan nan nan nan nan nan nan nan nan nan nan nan nan nan nan nan nan nan nan nan nan nan nan nan nan nan nan nan nan nan nan nan nan nan nan nan nan nan nan nan nan nan 243 nan nan nan 240 240 240 241 242 242 239 237 237 236 237 242 244 nan nan 247 249 252 254 255
nan nan nan nan nan nan nan nan nan nan nan nan nan nan nan nan nan nan nan nan nan nan nan nan nan nan nan nan nan nan nan nan nan nan nan nan nan nan nan nan nan nan nan nan nan nan nan nan nan nan nan nan nan nan nan nan nan nan nan nan nan nan nan nan nan nan nan 239 nan nan nan 241 239 237 235 236 240 242 243 244 246 248 251 253 255
nan nan nan nan nan nan nan nan nan nan nan nan nan nan nan nan nan nan nan nan nan nan nan nan nan nan nan nan nan nan nan nan nan nan nan nan nan nan nan nan nan nan nan nan nan nan nan nan nan nan nan nan nan nan nan nan nan nan nan nan nan nan nan nan nan nan nan nan nan nan nan nan nan 240 233 236 241 nan nan nan nan nan nan nan nan
nan nan nan nan nan nan nan nan nan nan nan nan nan nan nan nan nan nan nan nan nan nan nan nan nan nan nan nan nan nan nan nan nan nan nan nan nan nan nan nan nan nan nan nan nan nan nan nan nan nan nan nan nan nan nan nan nan nan nan nan nan nan nan nan nan nan nan nan nan nan nan nan nan 232 228 233 239 244 nan nan nan nan nan nan nan
nan nan nan nan nan nan nan nan nan nan nan nan nan nan nan nan nan nan nan nan nan nan nan nan nan nan nan nan nan nan nan nan nan nan nan nan nan nan nan nan nan nan nan nan nan nan nan nan nan nan nan nan nan nan nan nan nan nan nan nan nan nan nan nan nan nan nan nan nan nan nan nan nan nan nan nan nan nan nan nan nan nan nan nan nan
nan nan nan nan nan nan nan nan nan nan nan nan nan nan nan nan nan nan nan nan nan nan nan nan nan nan nan nan nan nan nan nan nan nan nan nan nan nan nan nan nan nan nan nan nan nan nan nan nan nan nan nan nan nan nan nan nan nan nan nan nan nan nan nan nan nan nan nan nan nan nan nan nan nan nan nan nan nan nan nan nan nan nan nan nan
nan nan nan nan nan nan nan nan nan nan nan nan nan nan nan nan nan nan nan nan nan nan nan nan nan nan nan nan nan nan nan nan nan nan nan nan nan nan nan nan nan nan nan nan nan nan nan nan nan nan nan nan nan nan nan nan nan nan nan nan nan nan nan nan nan nan nan nan nan nan nan nan nan nan nan nan nan nan nan nan nan nan nan nan nan
nan nan nan nan nan nan nan nan nan nan nan nan nan nan nan nan nan nan nan nan nan nan nan nan nan nan nan nan nan nan nan nan nan nan nan nan nan nan nan nan nan nan nan nan nan nan nan nan nan nan nan nan nan nan nan nan nan nan nan nan nan nan nan nan nan nan nan nan nan nan nan nan nan nan nan nan nan nan nan nan nan nan nan nan nan